When you browse on this site, cookies collect data to enhance your experience and personalize the content and advertising you see.
Visit our Privacy Policy to learn more. By continuing to use the site, you agree to this use of cookies and data.
  • în România
  • Lista ţărilor
  • Pe 7 zile
  • Temperatura apei
  • Meteo pe hartă
  • Widget-uri
  • user-avatar
    Intrare

    Meteo pe oră la Midlothian

    Astăzi, 26 Februarie, Miercuri

    Timp Temperatura Precipitaţii Vânt Presiune Umiditate
    00:00 -2°C° 0 mm 3 m/s 719 mmHg 93%
    01:00 -2°C° 0 mm 3 m/s 719 mmHg 93%
    02:00 -2°C° 0 mm 3 m/s 720 mmHg 92%
    03:00 -2°C° 0 mm 3 m/s 720 mmHg 92%
    04:00 -2°C° 0 mm 3 m/s 720 mmHg 91%
    05:00 -4°C° 0 mm 3 m/s 721 mmHg 91%
    06:00 -4°C° 0 mm 4 m/s 722 mmHg 91%
    07:00 -4°C° 0 mm 5 m/s 723 mmHg 88%
    08:00 -2°C° 0 mm 5 m/s 723 mmHg 84%
    09:00 -2°C° 0 mm 6 m/s 724 mmHg 80%
    10:00 -1°C° 0 mm 6 m/s 725 mmHg 75%
    11:00 -1°C° 0 mm 7 m/s 725 mmHg 70%
    12:00 0°C° 0 mm 8 m/s 726 mmHg 64%
    13:00 0°C° 0 mm 7 m/s 726 mmHg 63%
    14:00 0°C° 0 mm 7 m/s 726 mmHg 61%
    15:00 0°C° 0 mm 7 m/s 726 mmHg 60%
    16:00 -1°C° 0 mm 6 m/s 726 mmHg 66%
    17:00 -1°C° 0 mm 5 m/s 726 mmHg 72%
    18:00 -2°C° 0 mm 5 m/s 726 mmHg 78%
    19:00 -2°C° 0.1 mm 5 m/s 725 mmHg 82%
    20:00 -2°C° 0.1 mm 5 m/s 725 mmHg 87%
    21:00 -2°C° 0.1 mm 4 m/s 725 mmHg 91%
    22:00 -2°C° 0 mm 4 m/s 724 mmHg 90%
    23:00 -3°C° 0 mm 4 m/s 724 mmHg 90%

    Mâine, 27 Februarie, Joi

    Timp Temperatura Precipitaţii Vânt Presiune Umiditate
    00:00 -3°C° 0 mm 4 m/s 723 mmHg 89%
    01:00 -3°C° 0 mm 4 m/s 723 mmHg 90%
    02:00 -2°C° 0 mm 4 m/s 722 mmHg 90%
    03:00 -2°C° 0 mm 4 m/s 722 mmHg 91%
    04:00 -3°C° 0 mm 4 m/s 722 mmHg 91%
    05:00 -3°C° 0 mm 4 m/s 722 mmHg 91%
    06:00 -3°C° 0 mm 4 m/s 722 mmHg 91%
    07:00 -3°C° 0 mm 4 m/s 722 mmHg 87%
    08:00 -2°C° 0 mm 5 m/s 722 mmHg 84%
    09:00 -3°C° 0 mm 6 m/s 722 mmHg 80%
    10:00 -2°C° 0 mm 6 m/s 722 mmHg 75%
    11:00 -1°C° 0 mm 7 m/s 722 mmHg 69%
    12:00 0°C° 0 mm 7 m/s 723 mmHg 64%
    13:00 0°C° 0 mm 8 m/s 723 mmHg 64%
    14:00 0°C° 0 mm 8 m/s 723 mmHg 64%
    15:00 0°C° 0 mm 8 m/s 724 mmHg 64%
    16:00 0°C° 0 mm 7 m/s 724 mmHg 68%
    17:00 -1°C° 0 mm 7 m/s 725 mmHg 71%
    18:00 -2°C° 0 mm 7 m/s 726 mmHg 75%
    19:00 -2°C° 0 mm 7 m/s 726 mmHg 75%
    20:00 -3°C° 0 mm 7 m/s 727 mmHg 76%
    21:00 -3°C° 0 mm 7 m/s 727 mmHg 77%
    22:00 -3°C° 0 mm 6 m/s 728 mmHg 78%
    23:00 -3°C° 0 mm 6 m/s 728 mmHg 79%

    Poimâine, 28 Februarie, Vineri

    Timp Temperatura Precipitaţii Vânt Presiune Umiditate
    00:00 -3°C° 0 mm 6 m/s 729 mmHg 80%
    01:00 -2°C° 0 mm 5 m/s 729 mmHg 81%
    02:00 -2°C° 0 mm 5 m/s 729 mmHg 83%
    03:00 -2°C° 0 mm 5 m/s 729 mmHg 85%
    04:00 -2°C° 0 mm 5 m/s 729 mmHg 84%
    05:00 -2°C° 0 mm 4 m/s 728 mmHg 84%
    06:00 -2°C° 0 mm 4 m/s 728 mmHg 84%
    07:00 -1°C° 0 mm 4 m/s 728 mmHg 83%
    08:00 -1°C° 0 mm 4 m/s 727 mmHg 82%
    09:00 0°C° 0 mm 4 m/s 727 mmHg 82%
    10:00 0°C° 0 mm 4 m/s 727 mmHg 80%
    11:00 0°C° 0 mm 5 m/s 726 mmHg 79%
    12:00 +1°C° 0 mm 6 m/s 726 mmHg 78%
    13:00 +1°C° 0 mm 6 m/s 724 mmHg 80%
    14:00 +1°C° 0 mm 6 m/s 723 mmHg 82%
    15:00 -1°C° 0 mm 6 m/s 722 mmHg 84%
    16:00 0°C° 0.2 mm 5 m/s 721 mmHg 89%
    17:00 0°C° 0.2 mm 4 m/s 720 mmHg 93%
    18:00 0°C° 0.2 mm 3 m/s 719 mmHg 98%
    19:00 +1°C° 0.1 mm 2 m/s 718 mmHg 97%
    20:00 +1°C° 0.1 mm 2 m/s 717 mmHg 97%
    21:00 +1°C° 0.1 mm 2 m/s 716 mmHg 97%
    22:00 +2°C° 0 mm 2 m/s 715 mmHg 97%
    23:00 +2°C° 0 mm 2 m/s 714 mmHg 97%

    29 Februarie, Sâmbătă

    Timp Temperatura Precipitaţii Vânt Presiune Umiditate
    00:00 +2°C° 0 mm 2 m/s 713 mmHg 97%
    01:00 +2°C° 0.8 mm 2 m/s 711 mmHg 97%
    02:00 +2°C° 0.8 mm 3 m/s 709 mmHg 97%
    03:00 +2°C° 0.8 mm 3 m/s 708 mmHg 98%
    04:00 +3°C° 0.9 mm 4 m/s 706 mmHg 97%
    05:00 +4°C° 0.9 mm 4 m/s 705 mmHg 96%
    06:00 +5°C° 0.9 mm 4 m/s 703 mmHg 96%
    07:00 +5°C° 0.1 mm 5 m/s 703 mmHg 95%
    08:00 +5°C° 0.1 mm 5 m/s 702 mmHg 95%
    09:00 +5°C° 0.1 mm 5 m/s 701 mmHg 94%
    10:00 +4°C° 0.2 mm 6 m/s 701 mmHg 91%
    11:00 +3°C° 0.2 mm 7 m/s 701 mmHg 87%
    12:00 +1°C° 0.2 mm 8 m/s 701 mmHg 83%
    13:00 +2°C° 0 mm 7 m/s 700 mmHg 79%
    14:00 +3°C° 0 mm 5 m/s 699 mmHg 75%
    15:00 +4°C° 0 mm 4 m/s 699 mmHg 72%
    16:00 +3°C° 0.1 mm 3 m/s 698 mmHg 77%
    17:00 +3°C° 0.1 mm 2 m/s 697 mmHg 83%
    18:00 +3°C° 0.1 mm 1 m/s 697 mmHg 88%
    19:00 +2°C° 0 mm 2 m/s 697 mmHg 89%
    20:00 0°C° 0 mm 3 m/s 697 mmHg 91%
    21:00 -1°C° 0 mm 4 m/s 697 mmHg 92%
    22:00 -1°C° 0 mm 4 m/s 698 mmHg 92%
    23:00 -1°C° 0 mm 5 m/s 699 mmHg 92%

    1 Martie, Duminică

    Timp Temperatura Precipitaţii Vânt Presiune Umiditate
    00:00 -2°C° 0 mm 6 m/s 700 mmHg 92%
    01:00 -1°C° 1 mm 8 m/s 700 mmHg 91%
    02:00 -2°C° 1 mm 10 m/s 701 mmHg 91%
    03:00 -2°C° 1 mm 13 m/s 702 mmHg 90%
    04:00 -2°C° 0 mm 12 m/s 703 mmHg 85%
    05:00 -2°C° 0 mm 12 m/s 704 mmHg 79%
    06:00 -2°C° 0 mm 12 m/s 705 mmHg 74%
    07:00 -2°C° 0 mm 11 m/s 706 mmHg 73%
    08:00 -2°C° 0 mm 11 m/s 707 mmHg 72%
    09:00 -2°C° 0 mm 11 m/s 708 mmHg 70%
    10:00 -2°C° 0 mm 10 m/s 709 mmHg 69%
    11:00 0°C° 0 mm 10 m/s 709 mmHg 68%
    12:00 0°C° 0 mm 10 m/s 710 mmHg 67%
    13:00 0°C° 0.2 mm 10 m/s 711 mmHg 71%
    14:00 0°C° 0.2 mm 10 m/s 712 mmHg 75%
    15:00 0°C° 0.2 mm 9 m/s 712 mmHg 79%
    16:00 -1°C° 0 mm 8 m/s 713 mmHg 79%
    17:00 -1°C° 0 mm 7 m/s 714 mmHg 80%
    18:00 -2°C° 0 mm 6 m/s 714 mmHg 80%
    19:00 -2°C° 0 mm 5 m/s 715 mmHg 82%
    20:00 -2°C° 0 mm 5 m/s 715 mmHg 84%
    21:00 -3°C° 0 mm 4 m/s 715 mmHg 86%
    22:00 -2°C° 0 mm 3 m/s 715 mmHg 86%
    23:00 -2°C° 0 mm 2 m/s 715 mmHg 87%

    2 Martie, Luni

    Timp Temperatura Precipitaţii Vânt Presiune Umiditate
    00:00 0°C° 0 mm 1 m/s 715 mmHg 87%
    01:00 0°C° 0.1 mm 1 m/s 715 mmHg 88%
    02:00 +1°C° 0.1 mm 1 m/s 715 mmHg 90%
    03:00 +1°C° 0.1 mm 1 m/s 715 mmHg 91%
    04:00 +1°C° 0.2 mm 1 m/s 715 mmHg 93%
    05:00 +1°C° 0.2 mm 1 m/s 716 mmHg 95%
    06:00 +1°C° 0.2 mm 1 m/s 716 mmHg 97%
    07:00 +2°C° 0.1 mm 1 m/s 716 mmHg 95%
    08:00 +2°C° 0.1 mm 1 m/s 717 mmHg 94%
    09:00 +3°C° 0.1 mm 1 m/s 717 mmHg 92%
    10:00 +2°C° 0.1 mm 2 m/s 718 mmHg 90%
    11:00 +3°C° 0.1 mm 2 m/s 719 mmHg 88%
    12:00 +2°C° 0.1 mm 3 m/s 719 mmHg 86%
    13:00 +2°C° 0.1 mm 3 m/s 720 mmHg 85%
    14:00 +2°C° 0.1 mm 3 m/s 721 mmHg 85%
    15:00 +2°C° 0.1 mm 3 m/s 721 mmHg 84%
    16:00 +1°C° 0 mm 3 m/s 722 mmHg 85%
    17:00 +1°C° 0 mm 2 m/s 723 mmHg 86%
    18:00 +2°C° 0 mm 1 m/s 724 mmHg 87%
    19:00 +1°C° 0 mm 1 m/s 725 mmHg 87%
    20:00 +1°C° 0 mm 1 m/s 725 mmHg 88%
    21:00 +1°C° 0 mm 1 m/s 726 mmHg 89%
    22:00 +1°C° 0 mm 1 m/s 727 mmHg 90%
    23:00 +1°C° 0 mm 1 m/s 728 mmHg 91%
    Arată mai mult